星链-1975 (STARLINK-1975 )

导读 | 豆包AI

STARLINK-1975是美国太空探索技术公司(SpaceX)于2021年2月4日发射的星链(Starlink)项目卫星,属于星链V1.0版本,归属于美国运营制造。它部署在近地轨道,轨道倾角约53度,近地点约546公里,参与构建全球低轨卫星互联网星座,为全球提供宽带互联网接入服务,目前处于在轨运行状态,是星链巨型星座组网过程中的重要组网卫星。

基本信息
目录编号:
47573
目录名称:
STARLINK-1975
国际标识:
2021-009AB
轨道中心:
EARTH
卫星名称:
星链-1975
卫星全名:
星链-1975 (STARLINK-1975 )
卫星状态:
在轨 (已飞行1864 天)
发射日期:
2021-02-04 UTC
国别 :
美国 (US)
星等 :
--
轨道信息
数据来源 国际轨道数据
星历时间: 2026-03-14T08:00:02+0800
10小时前
查看轨道信息
半长轴: 6711.291km
偏心率: 0.0003621
轨道倾角: 53.051°
近地点辐角 147.743°
升交点赤经 287.497°
平近点角 15.299°
近地点: 330.723km
远地点: 335.585km
周期: 91.195分钟
每日圈数: 15.790421
详细信息
固有亮度:
5
最大亮度:
2.5
卫星平台:
Starlink V1.0
覆盖范围:
全球
运营商:
太空探索技术公司
运营商所在国:
美国
制造商(研发单位):
太空探索技术公司
制造商所在国:
美国
使用方式:
暂无
卫星简介
星链(Starlink)计划是由太空探索技术公司(SpaceX)提出的一个巨型低轨卫星互联网星座项目,计划在2019年至2024年间在太空搭建由约1.2万颗卫星组成的“星链”网络,其中1584颗将部署在地球上空550千米处的近地轨道,并从2020年开始工作。该卫星仍在工作。
2D轨道图
3D轨道图
轨道高度分析图
轨道倾角分析图
轨道综合分析图
查看轨道综合分析图